GW2742 Weather Reports


time (UTC)temp
C
wind
direction
speed
KPH
gust
KPH
rain 1hr
cm
rain 24hr
cm
rain mn
cm
humidity
%
barometer
mb
20260510234544 24 124 8.0 16.1 0.00 0.00 0.00 25 1015.8
20260510234026 24 110 8.0 14.5 0.00 0.00 0.00 26 1015.9
20260510233527 24 113 4.8 17.7 0.00 0.00 0.00 26 1016.0
20260510233042 24 110 8.0 17.7 0.00 0.00 0.00 25 1016.0
20260510232526 24 141 4.8 20.9 0.00 0.00 0.00 27 1016.0
20260510232026 24 147 6.4 22.5 0.00 0.00 0.00 26 1016.1
20260510231539 25 175 11.3 22.5 0.00 0.00 0.00 24 1016.1
20260510231026 25 83 6.4 19.3 0.00 0.00 0.00 25 1016.1
20260510230525 25 156 4.8 19.3 0.00 0.00 0.00 24 1016.1
20260510230036 25 148 11.3 19.3 0.00 0.00 0.00 26 1016.3
20260510225527 24 195 9.7 17.7 0.00 0.00 0.00 25 1016.2
20260510225030 24 141 6.4 17.7 0.00 0.00 0.00 27 1016.3
20260510224543 24 173 6.4 33.8 0.00 0.00 0.00 26 1016.3
20260510224025 24 94 11.3 33.8 0.00 0.00 0.00 26 1016.3
20260510223523 24 186 11.3 33.8 0.00 0.00 0.00 29 1016.4
20260510223040 24 114 8.0 17.7 0.00 0.00 0.00 26 1016.5
20260510222522 24 152 4.8 16.1 0.00 0.00 0.00 28 1016.6
20260510222023 24 146 8.0 17.7 0.00 0.00 0.00 27 1016.6
20260510221539 24 91 9.7 17.7 0.00 0.00 0.00 26 1016.7
20260510221023 23 63 4.8 22.5 0.00 0.00 0.00 27 1016.6
20260510220523 23 57 9.7 22.5 0.00 0.00 0.00 26 1016.7
20260510220038 23 198 9.7 20.9 0.00 0.00 0.00 25 1016.7
20260510215523 24 96 8.0 17.7 0.00 0.00 0.00 28 1016.8
20260510215022 24 121 11.3 17.7 0.00 0.00 0.00 29 1017.0
20260510214538 24 137 6.4 16.1 0.00 0.00 0.00 29 1017.1
20260510214023 23 136 6.4 16.1 0.00 0.00 0.00 27 1017.1
20260510213525 23 142 9.7 16.1 0.00 0.00 0.00 28 1017.2
20260510213041 23 202 6.4 12.9 0.00 0.00 0.00 29 1017.4
20260510212522 23 135 4.8 16.1 0.00 0.00 0.00 28 1017.4
20260510212026 23 143 4.8 17.7 0.00 0.00 0.00 29 1017.6
20260510211542 23 181 6.4 17.7 0.00 0.00 0.00 27 1017.6
20260510211023 23 160 8.0 19.3 0.00 0.00 0.00 29 1017.7
20260510210522 23 113 11.3 19.3 0.00 0.00 0.00 28 1017.7
20260510210037 23 109 8.0 24.1 0.00 0.00 0.00 29 1017.7
20260510205524 22 86 4.8 24.1 0.00 0.00 0.00 29 1017.7
20260510205023 22 122 9.7 17.7 0.00 0.00 0.00 33 1017.9
20260510204546 22 77 3.2 19.3 0.00 0.00 0.00 31 1017.8
20260510204023 22 140 9.7 19.3 0.00 0.00 0.00 33 1017.9
20260510203523 22 115 8.0 16.1 0.00 0.00 0.00 32 1017.9
20260510203037 22 154 8.0 16.1 0.00 0.00 0.00 32 1018.0
20260510202523 22 190 3.2 16.1 0.00 0.00 0.00 30 1018.1
20260510202022 22 199 9.7 24.1 0.00 0.00 0.00 31 1018.2
20260510201535 22 175 9.7 24.1 0.00 0.00 0.00 34 1018.2
20260510201024 21 112 6.4 19.3 0.00 0.00 0.00 37 1018.2
20260510200525 21 196 8.0 19.3 0.00 0.00 0.00 33 1018.4
20260510200038 21 85 4.8 19.3 0.00 0.00 0.00 34 1018.4
20260510195522 21 242 8.0 17.7 0.00 0.00 0.00 37 1018.5
20260510195022 21 147 3.2 24.1 0.00 0.00 0.00 32 1018.5
20260510194536 21 103 4.8 24.1 0.00 0.00 0.00 38 1018.7
20260510194028 21 174 9.7 17.7 0.00 0.00 0.00 34 1018.7
20260510193527 20 222 6.4 24.1 0.00 0.00 0.00 36 1018.7
20260510193036 21 150 11.3 24.1 0.00 0.00 0.00 34 1018.8
20260510192526 21 113 3.2 24.1 0.00 0.00 0.00 35 1019.1
20260510192026 21 200 11.3 24.1 0.00 0.00 0.00 36 1019.2
20260510191548 21 137 11.3 24.1 0.00 0.00 0.00 34 1019.3
20260510191027 21 172 4.8 19.3 0.00 0.00 0.00 32 1019.2
20260510190531 21 87 6.4 20.9 0.00 0.00 0.00 35 1019.4
20260510190041 21 122 11.3 20.9 0.00 0.00 0.00 36 1019.4
20260510185526 21 185 4.8 17.7 0.00 0.00 0.00 34 1019.5
20260510185029 20 94 8.0 16.1 0.00 0.00 0.00 37 1019.7
20260510184540 20 105 6.4 17.7 0.00 0.00 0.00 36 1019.8
20260510184027 20 193 8.0 17.7 0.00 0.00 0.00 37 1019.8
20260510183526 20 98 9.7 24.1 0.00 0.00 0.00 36 1020.0
20260510183043 20 23 11.3 24.1 0.00 0.00 0.00 35 1020.1
20260510182528 20 127 8.0 20.9 0.00 0.00 0.00 37 1020.1
20260510182026 20 202 9.7 20.9 0.00 0.00 0.00 40 1020.2
20260510181545 20 181 9.7 17.7 0.00 0.00 0.00 39 1020.3
20260510181028 20 127 8.0 22.5 0.00 0.00 0.00 39 1020.4
20260510180528 19 124 9.7 22.5 0.00 0.00 0.00 40 1020.5
20260510180041 18 140 8.0 19.3 0.00 0.00 0.00 40 1020.6
20260510175526 18 199 9.7 19.3 0.00 0.00 0.00 42 1020.6
20260510175027 18 148 8.0 22.5 0.00 0.00 0.00 43 1020.7
20260510174541 18 170 8.0 22.5 0.00 0.00 0.00 42 1020.7
20260510174027 18 212 6.4 22.5 0.00 0.00 0.00 44 1020.7
20260510173526 18 186 9.7 24.1 0.00 0.00 0.00 44 1020.7
20260510173043 18 131 8.0 24.1 0.00 0.00 0.00 42 1020.8
20260510172525 18 111 8.0 17.7 0.00 0.00 0.00 44 1020.7
20260510172026 18 152 6.4 20.9 0.00 0.00 0.00 47 1020.8
20260510171537 17 141 8.0 20.9 0.00 0.00 0.00 49 1020.9
20260510171026 17 103 9.7 19.3 0.00 0.00 0.00 49 1021.0
20260510170526 17 162 11.3 19.3 0.00 0.00 0.00 48 1021.0
20260510170037 17 88 9.7 17.7 0.00 0.00 0.00 49 1020.9
20260510165526 17 127 9.7 19.3 0.00 0.00 0.00 48 1021.1
20260510165027 17 82 9.7 19.3 0.00 0.00 0.00 48 1021.1
20260510164553 16 70 9.7 22.5 0.00 0.00 0.00 50 1021.2
20260510164025 16 73 11.3 22.5 0.00 0.00 0.00 50 1021.3
20260510163526 16 115 8.0 20.9 0.00 0.00 0.00 51 1021.3
20260510163045 16 193 11.3 20.9 0.00 0.00 0.00 51 1021.4
20260510162526 16 151 12.9 20.9 0.00 0.00 0.00 50 1021.5
20260510162031 16 117 11.3 19.3 0.00 0.00 0.00 52 1021.5
20260510161536 16 140 11.3 20.9 0.00 0.00 0.00 52 1021.6
20260510161026 16 152 8.0 20.9 0.00 0.00 0.00 53 1021.6
20260510160526 16 116 8.0 17.7 0.00 0.00 0.00 54 1021.6
20260510160040 15 205 8.0 16.1 0.00 0.00 0.00 54 1021.6
20260510155526 15 146 8.0 16.1 0.00 0.00 0.00 57 1021.6
20260510155027 15 122 6.4 16.1 0.00 0.00 0.00 53 1021.7
20260510154538 15 138 6.4 14.5 0.00 0.00 0.00 54 1021.8
20260510154025 15 126 4.8 14.5 0.00 0.00 0.00 56 1021.6
20260510153525 14 154 6.4 14.5 0.00 0.00 0.00 60 1021.7
20260510153045 13 92 4.8 11.3 0.00 0.00 0.00 61 1021.7
20260510152524 13 51 3.2 9.7 0.00 0.00 0.00 63 1021.8
20260510152024 13 0 4.8 8.0 0.00 0.00 0.00 65 1021.8
20260510151537 12 37 3.2 8.0 0.00 0.00 0.00 65 1021.9
20260510151026 12 37 3.2 8.0 0.00 0.00 0.00 64 1021.9
20260510150524 12 31 3.2 8.0 0.00 0.00 0.00 65 1022.0
20260510150046 12 67 3.2 8.0 0.00 0.00 0.00 66 1022.1
20260510145530 11 60 3.2 11.3 0.00 0.00 0.00 66 1022.1
20260510145026 11 69 4.8 11.3 0.00 0.00 0.00 68 1022.2
20260510144554 11 35 3.2 9.7 0.00 0.00 0.00 66 1022.1
20260510144027 11 33 3.2 9.7 0.00 0.00 0.00 68 1022.1
20260510143524 11 58 3.2 9.7 0.00 0.00 0.00 68 1022.2
20260510143037 11 82 0.0 4.8 0.00 0.00 0.00 70 1022.1
20260510142529 11 61 1.6 4.8 0.00 0.00 0.00 70 1022.2
20260510142027 10 0 0.0 0.0 0.00 0.00 0.00 70 1022.1
20260510141536 10 0 0.0 0.0 0.00 0.00 0.00 71 1022.3
20260510141028 10 0 0.0 0.0 0.00 0.00 0.00 71 1022.2
20260510140527 10 0 0.0 0.0 0.00 0.00 0.00 72 1022.2
20260510140037 10 0 0.0 0.0 0.00 0.00 0.00 73 1022.3
20260510135527 10 0 0.0 0.0 0.00 0.00 0.00 73 1022.3
20260510135026 10 0 0.0 0.0 0.00 0.00 0.00 74 1022.3
20260510134552 9 0 0.0 0.0 0.00 0.00 0.00 75 1022.4
20260510134026 8 0 0.0 0.0 0.00 0.00 0.00 78 1022.4
20260510133527 8 0 0.0 0.0 0.00 0.00 0.00 82 1022.4
20260510133038 7 0 0.0 0.0 0.00 0.00 0.00 85 1022.3
20260510132526 6 0 0.0 0.0 0.00 0.00 0.00 87 1022.4
20260510132026 6 0 0.0 0.0 0.00 0.00 0.00 89 1022.3
20260510131536 5 0 0.0 0.0 0.00 0.00 0.00 89 1022.3
20260510131026 5 0 0.0 0.0 0.00 0.00 0.00 90 1022.2
20260510130525 5 0 0.0 0.0 0.00 0.00 0.00 90 1022.2
20260510130037 4 0 0.0 0.0 0.00 0.00 0.00 89 1022.2
20260510125523 4 0 0.0 0.0 0.00 0.00 0.00 90 1022.1
20260510125024 3 0 0.0 0.0 0.00 0.00 0.00 90 1022.1
20260510124538 3 0 0.0 0.0 0.00 0.00 0.00 90 1022.1
20260510124024 3 0 0.0 0.0 0.00 0.00 0.00 90 1022.1
20260510123524 3 0 0.0 0.0 0.00 0.00 0.00 90 1022.0
20260510123037 3 0 0.0 0.0 0.00 0.00 0.00 89 1022.0
20260510122524 3 0 0.0 0.0 0.00 0.00 0.00 89 1021.9
20260510122026 3 0 0.0 0.0 0.00 0.00 0.00 90 1021.8
20260510121537 3 0 0.0 0.0 0.00 0.00 0.00 90 1021.8
20260510121025 3 0 0.0 0.0 0.00 0.00 0.00 89 1021.8
20260510120527 3 0 0.0 0.0 0.00 0.00 0.00 89 1021.8
20260510120037 3 0 0.0 0.0 0.00 0.00 0.00 90 1021.7
20260510115526 3 0 0.0 0.0 0.00 0.03 0.00 89 1021.8
20260510115027 3 0 0.0 0.0 0.00 0.03 0.00 89 1021.9
20260510114537 3 0 0.0 0.0 0.00 0.03 0.00 89 1021.9
20260510114024 3 0 0.0 0.0 0.00 0.03 0.00 88 1021.8
20260510113523 3 0 0.0 0.0 0.00 0.03 0.00 88 1021.7
20260510113041 3 0 0.0 0.0 0.00 0.03 0.00 88 1021.7
20260510112523 3 0 0.0 1.6 0.00 0.03 0.00 88 1021.8
20260510112023 3 0 0.0 1.6 0.00 0.03 0.00 88 1021.8
20260510111539 3 0 0.0 1.6 0.00 0.03 0.00 88 1021.7
20260510111023 3 0 0.0 4.8 0.00 0.03 0.00 87 1021.8
20260510110527 3 0 1.6 4.8 0.00 0.03 0.00 87 1021.7
20260510110040 3 342 1.6 4.8 0.00 0.03 0.00 87 1021.8
20260510105526 3 0 0.0 0.0 0.00 0.13 0.00 87 1021.8
20260510105024 3 0 0.0 0.0 0.00 0.13 0.00 87 1021.7
20260510104537 3 0 0.0 1.6 0.00 0.13 0.00 87 1021.8
20260510104027 3 0 0.0 3.2 0.00 0.13 0.00 87 1021.7
20260510103523 3 0 0.0 3.2 0.00 0.13 0.00 86 1021.7
20260510103043 3 213 1.6 3.2 0.00 0.13 0.00 86 1021.7
20260510102530 4 271 0.0 3.2 0.00 0.13 0.00 86 1021.7
20260510102028 4 271 0.0 4.8 0.00 0.13 0.00 86 1021.7
20260510101537 4 0 1.6 4.8 0.00 0.13 0.00 86 1021.7
20260510101023 4 285 1.6 3.2 0.00 0.13 0.00 86 1021.7
20260510100526 4 285 0.0 3.2 0.00 0.13 0.00 86 1021.7
20260510100047 4 338 0.0 1.6 0.00 0.13 0.00 86 1021.8
20260510095523 4 0 0.0 0.0 0.00 0.13 0.00 86 1021.7
20260510095024 5 0 0.0 0.0 0.00 0.13 0.00 86 1021.7
20260510094544 5 0 0.0 0.0 0.00 0.13 0.00 86 1021.7
20260510094024 5 0 0.0 0.0 0.00 0.13 0.00 86 1021.6
20260510093524 5 0 0.0 0.0 0.00 0.13 0.00 85 1021.6
20260510093036 5 0 0.0 0.0 0.00 0.13 0.00 84 1021.5
20260510092525 5 0 0.0 0.0 0.00 0.13 0.00 84 1021.6
20260510092026 5 0 0.0 0.0 0.00 0.13 0.00 84 1021.6
20260510091536 5 0 0.0 0.0 0.00 0.13 0.00 83 1021.4
20260510091025 5 0 0.0 0.0 0.00 0.13 0.00 82 1021.5
20260510090523 5 0 0.0 3.2 0.00 0.13 0.00 82 1021.5
20260510090040 5 0 0.0 4.8 0.00 0.13 0.00 81 1021.5
20260510085527 5 338 1.6 4.8 0.00 0.13 0.00 81 1021.6
20260510085026 6 338 1.6 4.8 0.00 0.13 0.00 79 1021.5
20260510084552 6 198 0.0 4.8 0.00 0.13 0.00 79 1021.5
20260510084023 6 0 0.0 4.8 0.00 0.13 0.00 80 1021.5
20260510083527 6 198 1.6 6.4 0.00 0.13 0.00 80 1021.5
20260510083041 6 212 1.6 6.4 0.00 0.13 0.00 80 1021.5
20260510082524 6 212 1.6 8.0 0.00 0.13 0.00 80 1021.5
20260510082024 6 209 3.2 8.0 0.00 0.13 0.00 80 1021.4
20260510081537 6 204 3.2 8.0 0.00 0.13 0.00 79 1021.5
20260510081024 7 203 3.2 8.0 0.00 0.13 0.00 79 1021.4
20260510080530 7 191 3.2 6.4 0.00 0.13 0.00 78 1021.3
20260510080036 7 191 3.2 6.4 0.00 0.13 0.00 79 1021.4
20260510075527 7 188 0.0 4.8 0.00 0.13 0.00 79 1021.3
20260510075023 7 0 0.0 4.8 0.00 0.13 0.00 79 1021.3
20260510074537 7 188 3.2 4.8 0.00 0.13 0.00 79 1021.3
20260510074025 7 188 1.6 4.8 0.00 0.13 0.00 79 1021.4
20260510073523 7 179 1.6 6.4 0.00 0.13 0.00 79 1021.4
20260510073047 7 179 3.2 6.4 0.00 0.13 0.00 79 1021.3
20260510072523 7 162 1.6 4.8 0.00 0.13 0.00 80 1021.4
20260510072026 7 0 0.0 1.6 0.00 0.13 0.00 80 1021.3
20260510071548 7 0 0.0 4.8 0.00 0.13 0.00 80 1021.2
20260510071023 7 0 0.0 4.8 0.00 0.13 0.00 79 1021.3
20260510070523 7 240 1.6 4.8 0.00 0.13 0.00 78 1021.3
20260510070041 7 241 0.0 3.2 0.00 0.13 0.00 78 1021.2
20260510065524 7 0 0.0 0.0 0.00 0.13 0.00 78 1021.3
20260510065026 8 0 0.0 0.0 0.00 0.13 0.00 77 1021.1
20260510064545 8 0 0.0 1.6 0.00 0.13 0.00 77 1021.1
20260510064025 8 0 0.0 4.8 0.00 0.13 0.00 77 1021.0
20260510063528 8 241 0.0 4.8 0.00 0.13 0.00 77 1021.0
20260510063038 8 241 1.6 4.8 0.00 0.13 0.00 76 1020.9
20260510062525 8 241 1.6 4.8 0.00 0.13 0.00 75 1020.9
20260510062028 8 241 0.0 4.8 0.00 0.13 0.00 75 1020.9
20260510061538 8 236 0.0 4.8 0.00 0.13 0.00 74 1020.9
20260510061024 8 0 0.0 6.4 0.00 0.13 0.00 74 1020.8
20260510060525 9 239 1.6 6.4 0.00 0.13 0.00 75 1020.9
20260510060046 8 215 1.6 6.4 0.00 0.13 0.00 74 1020.9
20260510055524 9 231 1.6 3.2 0.00 0.13 0.13 74 1020.7
20260510055024 9 230 0.0 3.2 0.00 0.13 0.13 73 1020.8
20260510054537 9 230 0.0 4.8 0.00 0.13 0.13 72 1020.8
20260510054025 10 230 0.0 4.8 0.00 0.13 0.13 71 1020.8
20260510053525 10 230 0.0 4.8 0.00 0.13 0.13 71 1020.8
20260510053041 10 230 1.6 9.7 0.00 0.13 0.13 70 1020.8
20260510052524 10 233 3.2 9.7 0.00 0.13 0.13 70 1020.8
20260510052024 10 246 1.6 4.8 0.00 0.13 0.13 69 1020.8
20260510051542 10 238 1.6 4.8 0.00 0.13 0.13 70 1020.7
20260510051024 10 224 1.6 6.4 0.00 0.13 0.13 69 1020.7
20260510050524 10 202 1.6 6.4 0.00 0.13 0.13 70 1020.6
20260510050040 10 229 1.6 4.8 0.00 0.13 0.13 69 1020.7
20260510045524 11 219 1.6 4.8 0.00 0.13 0.13 69 1020.7
20260510045026 11 219 1.6 4.8 0.00 0.13 0.13 68 1020.6
20260510044540 11 257 0.0 4.8 0.00 0.13 0.13 68 1020.6
20260510044026 11 257 1.6 4.8 0.00 0.13 0.13 68 1020.6
20260510043526 11 80 0.0 3.2 0.00 0.13 0.13 68 1020.6
20260510043044 11 0 0.0 3.2 0.00 0.13 0.13 67 1020.6
20260510042524 11 79 0.0 3.2 0.00 0.13 0.13 66 1020.6
20260510042026 11 93 1.6 4.8 0.00 0.13 0.13 66 1020.6
20260510041549 11 93 0.0 4.8 0.00 0.13 0.13 65 1020.5
20260510041025 11 105 1.6 4.8 0.00 0.13 0.13 65 1020.4
20260510040527 11 0 0.0 3.2 0.00 0.13 0.13 66 1020.4
20260510040036 11 0 0.0 3.2 0.00 0.13 0.13 66 1020.5
20260510035528 11 106 1.6 6.4 0.00 0.13 0.13 67 1020.4
20260510035026 11 106 1.6 6.4 0.00 0.13 0.13 67 1020.4
20260510034540 11 106 0.0 4.8 0.00 0.13 0.13 67 1020.2
20260510034027 11 0 0.0 4.8 0.00 0.13 0.13 64 1020.3
20260510033524 12 0 0.0 9.7 0.00 0.13 0.13 64 1020.1
20260510033037 12 44 3.2 9.7 0.00 0.13 0.13 63 1020.0
20260510032523 12 40 4.8 12.9 0.00 0.13 0.13 62 1019.9
20260510032023 12 29 4.8 12.9 0.00 0.13 0.13 62 1019.8
20260510031537 12 41 6.4 12.9 0.00 0.13 0.13 62 1019.8
20260510031024 12 25 3.2 14.5 0.00 0.13 0.13 62 1019.8
20260510030527 12 78 3.2 14.5 0.00 0.13 0.13 61 1019.7
20260510030037 12 30 3.2 11.3 0.00 0.13 0.13 62 1019.7
20260510025523 12 66 4.8 11.3 0.00 0.15 0.13 62 1019.5
20260510025026 12 63 4.8 12.9 0.00 0.15 0.13 62 1019.4
20260510024547 12 30 4.8 12.9 0.00 0.15 0.13 62 1019.4
20260510024026 13 49 6.4 14.5 0.00 0.15 0.13 61 1019.3
20260510023523 13 35 8.0 14.5 0.00 0.15 0.13 61 1019.2
20260510023037 13 54 6.4 14.5 0.00 0.15 0.13 61 1019.2
20260510022526 13 72 6.4 14.5 0.00 0.15 0.13 61 1019.0
20260510022023 13 35 6.4 20.9 0.00 0.15 0.13 61 1018.9
20260510021537 13 31 8.0 20.9 0.00 0.15 0.13 60 1019.0
20260510021022 13 27 9.7 19.3 0.00 0.15 0.13 59 1018.9
20260510020522 14 33 9.7 19.3 0.00 0.15 0.13 58 1018.8
20260510020049 15 37 8.0 16.1 0.00 0.15 0.13 57 1018.7
20260510015523 15 52 9.7 16.1 0.00 0.15 0.13 57 1018.6
20260510015023 15 11 8.0 14.5 0.00 0.15 0.13 56 1018.5
20260510014538 15 46 6.4 19.3 0.00 0.15 0.13 54 1018.5
20260510014023 16 25 3.2 19.3 0.00 0.15 0.13 53 1018.5
20260510013523 16 91 11.3 17.7 0.00 0.15 0.13 52 1018.5
20260510013046 16 32 9.7 17.7 0.00 0.15 0.13 49 1018.4
20260510012523 17 15 6.4 19.3 0.00 0.15 0.13 42 1018.2
20260510012023 17 328 8.0 19.3 0.00 0.15 0.13 40 1018.0
20260510011539 17 15 9.7 19.3 0.00 0.15 0.13 41 1018.2
20260510011022 17 360 4.8 19.3 0.00 0.15 0.13 44 1018.2
20260510010522 17 11 4.8 19.3 0.00 0.15 0.13 48 1018.0
20260510010055 17 63 9.7 22.5 0.00 0.15 0.13 47 1018.0
20260510005527 17 1 8.0 22.5 0.00 0.15 0.13 42 1018.1
20260510005022 17 40 8.0 19.3 0.00 0.15 0.13 44 1018.0
20260510004536 17 22 11.3 20.9 0.00 0.15 0.13 44 1017.8
20260510004027 17 340 9.7 22.5 0.00 0.15 0.13 41 1017.9
20260510003525 17 336 11.3 22.5 0.00 0.15 0.13 41 1017.9
20260510003038 17 307 9.7 25.7 0.00 0.15 0.13 41 1017.8
20260510002523 17 341 12.9 25.7 0.00 0.15 0.13 42 1017.9
20260510002023 17 359 11.3 25.7 0.00 0.15 0.13 41 1017.7
20260510001538 17 348 9.7 24.1 0.00 0.15 0.13 44 1017.8
20260510001025 16 348 9.7 24.1 0.00 0.15 0.13 44 1017.7
20260510000528 17 352 11.3 20.9 0.00 0.15 0.13 43 1017.7
20260510000041 16 336 11.3 20.9 0.00 0.15 0.13 44 1017.7
20260509235524 16 335 11.3 32.2 0.00 0.15 0.13 45 1017.7
20260509235023 16 324 14.5 32.2 0.00 0.15 0.13 44 1017.6